UTA7775 USRR-USRO

Flight info

Callsign UTA7775
Flight time 0h 33m
Altitude 21000
Route ULGUN1W ULGUN R717 INGIR INGIR1J
Aircraft B738/M-SDE2E3FGHIRWXY/LB1

Departure

Time 2026-04-19 05:42
Airport Surgut International Airport (USRR)

Arrival

Time 2026-04-19 06:16
Airport Noyabrsk Airport (USRO)
Time Latitude Longitude Altitude Speed Heading
2026-04-19 05:30 61.34112 73.40347 119 ft 0 kts 180°
2026-04-19 05:34 61.34111 73.40347 119 ft 0 kts 180°
2026-04-19 05:35 61.34110 73.40347 122 ft 0 kts 180°
2026-04-19 05:37 61.34082 73.40331 117 ft 10 kts 210°
2026-04-19 05:37 61.34064 73.40205 121 ft 10 kts 266°
2026-04-19 05:37 61.34061 73.40015 122 ft 16 kts 268°
2026-04-19 05:38 61.34060 73.39808 121 ft 13 kts 270°
2026-04-19 05:38 61.34059 73.39621 121 ft 12 kts 274°
2026-04-19 05:38 61.34126 73.39546 118 ft 12 kts 353°
2026-04-19 05:38 61.34166 73.39448 118 ft 9 kts 273°
2026-04-19 05:39 61.34167 73.39312 118 ft 9 kts 270°
2026-04-19 05:39 61.34166 73.39175 120 ft 9 kts 269°
2026-04-19 05:39 61.34166 73.39039 120 ft 9 kts 269°
2026-04-19 05:39 61.34165 73.38901 120 ft 10 kts 269°
2026-04-19 05:40 61.34164 73.38732 119 ft 16 kts 269°
2026-04-19 05:40 61.34162 73.38512 119 ft 15 kts 269°
2026-04-19 05:40 61.34163 73.38305 118 ft 14 kts 275°
2026-04-19 05:40 61.34212 73.38149 118 ft 13 kts 319°
2026-04-19 05:41 61.34285 73.38042 117 ft 12 kts 334°
2026-04-19 05:41 61.34356 73.37992 117 ft 5 kts 18°
2026-04-19 05:41 61.34372 73.38059 118 ft 8 kts 82°
2026-04-19 05:41 61.34379 73.38955 119 ft 120 kts 89°
2026-04-19 05:42 61.34436 73.41310 487 ft 194 kts 87°
2026-04-19 05:42 61.34495 73.44205 1376 ft 207 kts 85°
2026-04-19 05:42 61.34572 73.47226 1469 ft 202 kts 83°
2026-04-19 05:42 61.34756 73.49979 1576 ft 183 kts 75°
2026-04-19 05:43 61.35113 73.52392 1692 ft 176 kts 57°
2026-04-19 05:43 61.36147 73.54289 1820 ft 228 kts 29°
2026-04-19 05:43 61.37429 73.56536 1772 ft 249 kts 57°
2026-04-19 05:43 61.37783 73.59963 1780 ft 244 kts 97°
2026-04-19 05:44 61.37018 73.63024 1807 ft 245 kts 135°
2026-04-19 05:44 61.35587 73.65028 1797 ft 251 kts 148°
2026-04-19 05:44 61.34210 73.67233 1788 ft 250 kts 128°
2026-04-19 05:44 61.33513 73.70400 1796 ft 245 kts 92°
2026-04-19 05:45 61.33800 73.73878 1820 ft 241 kts 69°
2026-04-19 05:45 61.34406 73.77105 1785 ft 239 kts 62°
2026-04-19 05:45 61.35244 73.80028 1908 ft 238 kts 52°
2026-04-19 05:45 61.36352 73.82600 2654 ft 238 kts 40°
2026-04-19 05:46 61.37533 73.84927 4098 ft 231 kts 44°
2026-04-19 05:46 61.38549 73.87534 5389 ft 232 kts 53°
2026-04-19 05:46 61.39331 73.90475 6619 ft 231 kts 62°
2026-04-19 05:46 61.39955 73.93578 7651 ft 234 kts 64°
2026-04-19 05:47 61.40611 73.96721 8610 ft 236 kts 59°
2026-04-19 05:47 61.41427 73.99694 9617 ft 236 kts 52°
2026-04-19 05:47 61.42409 74.02445 10471 ft 240 kts 45°
2026-04-19 05:47 61.43554 74.05232 10828 ft 263 kts 45°
2026-04-19 05:48 61.44768 74.08208 11424 ft 280 kts 44°
2026-04-19 05:48 61.46103 74.11501 11701 ft 313 kts 48°
2026-04-19 05:48 61.47387 74.15341 12424 ft 328 kts 53°
2026-04-19 05:48 61.48601 74.19457 13394 ft 336 kts 54°
2026-04-19 05:49 61.49962 74.23412 14324 ft 335 kts 38°
2026-04-19 05:49 61.51892 74.25984 15217 ft 327 kts 16°
2026-04-19 05:49 61.54054 74.27387 16217 ft 325 kts 10°
2026-04-19 05:49 61.56234 74.28614 17363 ft 322 kts
2026-04-19 05:50 61.58403 74.29810 18127 ft 322 kts
2026-04-19 05:50 61.60538 74.30999 18319 ft 323 kts
2026-04-19 05:50 61.62711 74.32223 18335 ft 323 kts
2026-04-19 05:50 61.64869 74.33457 18319 ft 321 kts
2026-04-19 05:51 61.67018 74.34695 18317 ft 320 kts
2026-04-19 05:51 61.69161 74.35935 18321 ft 319 kts
2026-04-19 05:51 61.71303 74.37176 18314 ft 319 kts
2026-04-19 05:51 61.73442 74.38421 18310 ft 319 kts
2026-04-19 05:52 61.75588 74.39673 18314 ft 319 kts
2026-04-19 05:52 61.77733 74.40927 18320 ft 320 kts
2026-04-19 05:52 61.79875 74.42179 18319 ft 320 kts
2026-04-19 05:52 61.82022 74.43432 18315 ft 320 kts
2026-04-19 05:53 61.84173 74.44689 18312 ft 321 kts
2026-04-19 05:53 61.86327 74.45949 18314 ft 321 kts
2026-04-19 05:53 61.88480 74.47209 18314 ft 321 kts
2026-04-19 05:53 61.90636 74.48472 18320 ft 321 kts
2026-04-19 05:54 61.92791 74.49737 18317 ft 322 kts
2026-04-19 05:54 61.94945 74.51003 18316 ft 321 kts
2026-04-19 05:54 61.97103 74.52273 18331 ft 321 kts 10°
2026-04-19 05:54 61.99231 74.53529 18318 ft 321 kts 10°
2026-04-19 05:55 62.01383 74.54803 18315 ft 321 kts 10°
2026-04-19 05:55 62.03533 74.56080 18322 ft 320 kts 10°
2026-04-19 05:55 62.05674 74.57353 18318 ft 320 kts 10°
2026-04-19 05:55 62.07820 74.58628 18316 ft 320 kts 10°
2026-04-19 05:56 62.09959 74.59899 18321 ft 319 kts 10°
2026-04-19 05:56 62.12071 74.61159 18216 ft 312 kts 10°
2026-04-19 05:56 62.14154 74.62408 17924 ft 308 kts 10°
2026-04-19 05:56 62.16218 74.63645 17547 ft 305 kts 10°
2026-04-19 05:57 62.18244 74.64858 17190 ft 300 kts 10°
2026-04-19 05:57 62.20252 74.66059 16638 ft 301 kts 10°
2026-04-19 05:57 62.22280 74.67261 16149 ft 302 kts 10°
2026-04-19 05:57 62.24294 74.68459 15749 ft 299 kts 11°
2026-04-19 05:58 62.26286 74.69656 15376 ft 295 kts 11°
2026-04-19 05:58 62.28262 74.70852 15000 ft 295 kts 11°
2026-04-19 05:58 62.30244 74.72049 14648 ft 296 kts 12°
2026-04-19 05:58 62.32244 74.73254 14276 ft 303 kts 12°
2026-04-19 05:59 62.34312 74.74492 13866 ft 313 kts 12°
2026-04-19 05:59 62.36388 74.75738 13466 ft 313 kts 12°
2026-04-19 05:59 62.38461 74.76999 13070 ft 306 kts 12°
2026-04-19 05:59 62.40487 74.78242 12688 ft 300 kts 13°
2026-04-19 06:00 62.42481 74.79464 12317 ft 296 kts 13°
2026-04-19 06:00 62.44460 74.80660 11954 ft 296 kts 12°
2026-04-19 06:00 62.46450 74.81853 11578 ft 298 kts 13°
2026-04-19 06:00 62.48489 74.83075 11205 ft 311 kts 13°
2026-04-19 06:01 62.50599 74.84353 10805 ft 318 kts 13°
2026-04-19 06:01 62.52714 74.85663 10399 ft 313 kts 14°
2026-04-19 06:01 62.54761 74.86950 10234 ft 298 kts 14°
2026-04-19 06:01 62.56712 74.88167 10077 ft 285 kts 14°
2026-04-19 06:02 62.58586 74.89335 9839 ft 276 kts 14°
2026-04-19 06:02 62.60417 74.90469 9534 ft 272 kts 14°
2026-04-19 06:02 62.62237 74.91583 9232 ft 273 kts 14°
2026-04-19 06:02 62.64069 74.92695 8930 ft 275 kts 14°
2026-04-19 06:03 62.65960 74.93845 8604 ft 289 kts 14°
2026-04-19 06:03 62.67888 74.95028 8262 ft 293 kts 14°
2026-04-19 06:03 62.69830 74.96239 7917 ft 287 kts 15°
2026-04-19 06:03 62.71723 74.97431 7584 ft 280 kts 15°
2026-04-19 06:04 62.73579 74.98604 7245 ft 275 kts 15°
2026-04-19 06:04 62.75413 74.99745 6928 ft 274 kts 13°
2026-04-19 06:04 62.77279 75.00599 6679 ft 273 kts 10°
2026-04-19 06:04 62.79129 75.01277 6391 ft 266 kts
2026-04-19 06:05 62.80914 75.02036 6138 ft 259 kts 11°
2026-04-19 06:05 62.82651 75.02874 5891 ft 252 kts 13°
2026-04-19 06:05 62.84335 75.03782 5636 ft 243 kts 12°
2026-04-19 06:05 62.85955 75.04427 5399 ft 232 kts
2026-04-19 06:06 62.87526 75.05010 5190 ft 227 kts
2026-04-19 06:06 62.89075 75.05681 4928 ft 228 kts 12°
2026-04-19 06:06 62.90623 75.06424 4719 ft 221 kts 11°
2026-04-19 06:06 62.92042 75.07065 4554 ft 195 kts 11°
2026-04-19 06:07 62.93284 75.07655 4344 ft 175 kts 11°
2026-04-19 06:07 62.94427 75.08174 4174 ft 156 kts 11°
2026-04-19 06:07 62.95429 75.08595 3983 ft 143 kts 10°
2026-04-19 06:07 62.96378 75.08994 3791 ft 136 kts 12°
2026-04-19 06:08 62.97327 75.09435 3679 ft 142 kts 11°
2026-04-19 06:08 62.98304 75.09861 3568 ft 145 kts 11°
2026-04-19 06:08 62.99296 75.10285 3383 ft 145 kts 11°
2026-04-19 06:08 63.00251 75.10692 3232 ft 137 kts 12°
2026-04-19 06:09 63.01170 75.11151 3151 ft 133 kts 13°
2026-04-19 06:09 63.02078 75.11625 3125 ft 137 kts 12°
2026-04-19 06:09 63.03025 75.12074 2857 ft 139 kts 12°
2026-04-19 06:09 63.03946 75.12460 2780 ft 131 kts
2026-04-19 06:10 63.04525 75.12842 2691 ft 135 kts 29°
2026-04-19 06:10 63.05209 75.14268 2513 ft 132 kts 48°
2026-04-19 06:10 63.05750 75.15749 2497 ft 122 kts 44°
2026-04-19 06:10 63.06400 75.16952 2268 ft 121 kts 30°
2026-04-19 06:11 63.07117 75.17823 2184 ft 118 kts 26°
2026-04-19 06:11 63.07803 75.18747 2149 ft 115 kts 34°
2026-04-19 06:11 63.08367 75.20059 2022 ft 123 kts 53°
2026-04-19 06:12 63.08666 75.23780 1847 ft 128 kts 92°
2026-04-19 06:12 63.08508 75.25737 1824 ft 128 kts 96°
2026-04-19 06:12 63.08545 75.27617 1801 ft 121 kts 56°
2026-04-19 06:12 63.09234 75.28225 1825 ft 116 kts 345°
2026-04-19 06:13 63.09817 75.27048 1844 ft 116 kts 319°
2026-04-19 06:13 63.10454 75.25935 1836 ft 117 kts 329°
2026-04-19 06:13 63.11173 75.25421 1833 ft 112 kts 13°
2026-04-19 06:13 63.11908 75.26047 1832 ft 113 kts 11°
2026-04-19 06:14 63.12583 75.25409 1863 ft 117 kts 307°
2026-04-19 06:14 63.13118 75.24067 1833 ft 113 kts 343°
2026-04-19 06:14 63.13926 75.23896 1591 ft 124 kts 352°
2026-04-19 06:14 63.14755 75.23701 1365 ft 117 kts 359°
2026-04-19 06:15 63.15553 75.24011 1101 ft 119 kts 17°
2026-04-19 06:15 63.16307 75.24763 831 ft 118 kts 23°
2026-04-19 06:15 63.17045 75.25529 648 ft 119 kts 21°
2026-04-19 06:15 63.17770 75.26276 479 ft 106 kts 21°
2026-04-19 06:16 63.18229 75.26730 458 ft 22 kts 26°
2026-04-19 06:16 63.18325 75.26841 458 ft 15 kts 46°